• Processing (Info)

  • MPEC 2023-W09 : 2023 VE10

    The following Minor Planet Electronic Circular may be linked-to from your own Web pages, but must not otherwise be redistributed electronically.

    A form allowing access to any MPEC is at the bottom of this page.


    Read MPEC 2023-W08 Read MPEC 2023-W10


    M.P.E.C. 2023-W09                             Issued 2023 November 16, 17:31 UT
    
         The Minor Planet Electronic Circulars contain information on unusual
             minor planets, routine data on comets and natural satellites,
             and occasional editorial announcements.  They are published
        on behalf of Division F of the International Astronomical Union by the
              Minor Planet Center, Smithsonian Astrophysical Observatory,
                              Cambridge, MA 02138, U.S.A.
    			  
                 Prepared using the Tamkin Foundation Computer Network
    
                                  MPC@CFA.HARVARD.EDU
                URL https://www.minorplanetcenter.net/    ISSN 1523-6714
    
                                    2023 VE10                                
    
    
    Observations:
         K23V10E*KC2023 11 15.18834 03 26 15.70 -19 14 15.8          19.5 GVEW009W94
         K23V10E KC2023 11 15.19495 03 26 21.88 -19 12 51.5          19.6 GVEW009W94
         K23V10E KC2023 11 15.20111 03 26 27.76 -19 11 32.3          20.7 GVEW009W94
         K23V10E KC2023 11 15.29168 03 27 52.95 -18 52 11.6          19.5 GVEW009X10
         K23V10E KC2023 11 15.29705 03 27 58.09 -18 51 00.1                VEW009X10
         K23V10E KC2023 11 15.30240 03 28 03.19 -18 49 51.5                VEW009X10
         K23V10E KC2023 11 15.30946 03 28 09.86 -18 48 20.2          18.9 GVEW009X10
         K23V10E KC2023 11 15.31481 03 28 14.95 -18 47 11.1          20.0 GVEW009X10
         K23V10E KC2023 11 15.32017 03 28 20.17 -18 45 59.9                VEW009X10
         K23V10E KC2023 11 15.39630703 29 51.41 -18 28 51.0          20.2 GVEW009474
         K23V10E KC2023 11 15.39753703 29 52.56 -18 28 34.7          20.3 GVEW009474
         K23V10E KC2023 11 15.39999603 29 54.94 -18 28 04.6          20.4 GVEW009474
         K23V10E KC2023 11 15.40122503 29 56.13 -18 27 48.7          20.8 GVEW009474
         K23V10E KC2023 11 15.53777603 32 05.46 -17 58 48.1          20.3 GVEW009474
         K23V10E KC2023 11 15.54278703 32 10.16 -17 57 44.5                VEW009474
         K23V10E pC2023 11 15.88633403 37 54.84 -16 47 34.7          19.5 GVEW009L01
         K23V10E KC2023 11 15.88843603 37 56.77 -16 47 07.5          19.4 GVEW009L01
         K23V10E KC2023 11 15.89078203 37 58.98 -16 46 37.4          19.4 GVEW009L01
         K23V10E KC2023 11 15.94811 03 38 52.69 -16 34 13.9                VEW009104
         K23V10E KC2023 11 15.96058 03 39 04.15 -16 31 31.2          19.3 GVEW009104
         K23V10E 1C2023 11 15.97166 03 39 14.35 -16 29 17.3          21.0 VXEW009033
         K23V10E 1C2023 11 15.97212 03 39 14.72 -16 29 11.6          20.9 VXEW009033
         K23V10E 1C2023 11 15.97259 03 39 15.13 -16 29 05.6          21.1 VXEW009033
         K23V10E |C2023 11 16.12096003 41 44.910-15 53 23.50         19.95VuEW009807
         K23V10E |C2023 11 16.12463303 41 48.250-15 52 36.30         20.22VuEW009807
         K23V10E |C2023 11 16.12838303 41 51.650-15 51 47.30         20.31VuEW009807
         K23V10E |C2023 11 16.13205003 41 55.000-15 51 00.40         20.68VuEW009807
    
    Observer details:
    033 Karl Schwarzschild Observatory, Tautenburg.  Observers S. Melnikov, C.
        Hogner, F. Ludwig, M. Hartmann, B. Stecklum.  Measurer B. Stecklum.
        1.34-m f/3 Schmidt + CCD.
    104 San Marcello Pistoiese.  Observers P. Bacci, M. Maestripieri.  Measurer P.
        Bacci.  0.60-m f/4.0 reflector + CCD.
    474 Mount John Observatory, Lake Tekapo.  Observers A. C. Gilmore, P. M.
        Kilmartin.  Measurer P. M. Kilmartin.  1.0-m f/7.7 reflector + CCD.
    807 Cerro Tololo Observatory, La Serena.  Observers T. Linder, R. Holmes, L.
        Horn.  0.61-m f/11 Ritchey-Chretien + CCD.
    L01 Visnjan Observatory, Tican.  Observer K. Korlevic.  1.0-m f/2.9 reflector
        + CCD.
    W94 MAP, San Pedro de Atacama.  Observers A. Maury, G. Attard.  Measurers D.
        Parrott, F. Signoret, J.-M. Mari.  0.28-m f/2.2 Schmidt astrograph + CCD.
    X10 OVTLN, San Pedro de Atacama.  Observers A. Maury, G. Attard, F. Signoret.
        Measurers A. Maury, G. Attard, D. Parrott, J.-M. Mari.  0.50-m f/4
        reflector + CCD.
    
    Orbital elements:
    2023 VE10                                                Earth MOID = 0.0493 AU
    Epoch 2023 Sept. 13.0 TT = JDT 2460200.5                Bell                    
    M 347.36396              (2000.0)            P               Q                  
    n   0.22504018     Peri.  330.67308     +0.72604888     -0.68317880             
    a   2.6768827      Node    72.63953     +0.64579277     +0.63835244             
    e   0.6169898      Incl.    4.70138     +0.23623023     +0.35464474             
    P   4.38           H   25.29          G   0.15           U   8                  
    Residuals in seconds of arc
    231115 W94  0.3-  0.7-    231115 474  0.8+  0.6+    231115 104  0.2+  0.1-
    231115 W94  0.5-  0.4-    231115 474  0.3+  1.4+    231115 104  0.7-  0.8+
    231115 W94  1.0+  0.4+    231115 474  0.5+  0.5+    231115 033  0.5+  0.1-
    231115 X10  0.7-  1.7-    231115 474  0.6+  0.8+    231115 033  0.4-  0.4-
    231115 X10  0.2-  0.3+    231115 474  0.2-  1.1+    231115 033  0.8-  0.5-
    231115 X10  0.0   0.4-    231115 474  0.4-  0.2+    231116 807  0.3+  0.1+
    231115 X10  0.9-  0.7-    231115 L01  0.3+  0.2-    231116 807  0.1+  0.2-
    231115 X10  1.2-  1.1-    231115 L01  0.2-  0.1-    231116 807  0.2-  0.3+
    231115 X10  0.1+  0.5+    231115 L01  0.1+  0.2-    231116 807  0.1-  0.3-
    
    Ephemeris:
    2023 VE10                a,e,i = 2.68, 0.62, 5                   q = 1.0253
    Date    TT    R. A. (2000) Decl.     Delta      r    Elong.  Phase     V
    2023 10 17    22 35 37.6 -41 59 09   0.1417  1.0666   116.0    57.2    23.3
    ...
    2023 11 01    23 55 13.7 -42 39 45   0.08418 1.0297   113.9    61.8    22.2
    ...
    2023 11 09    01 39 08.2 -35 58 13   0.05902 1.0253   124.5    52.8    21.1
    ...
    2023 11 15    03 23 04.7 -19 54 14   0.05026 1.0293   141.8    36.5    20.3
    2023 11 16    03 39 41.4 -16 20 38   0.05020 1.0306   144.9    33.5    20.3
    2023 11 17    03 55 35.3 -12 42 19   0.05059 1.0320   147.7    30.8    20.2
    ...
    2023 11 23    05 12 02.1 +06 43 54   0.06137 1.0441   156.3    22.3    20.4
    ...
    2023 12 01    06 09 12.4 +21 05 00   0.09014 1.0691   155.9    22.1    21.3
    ...
    2023 12 16    06 48 03.0 +30 36 46   0.1625  1.1395   161.4    16.0    22.5
    
    M. P. C. Staff               (C) Copyright 2023 MPC           M.P.E.C. 2023-W09
    


    Read MPEC 2023-W08 Read MPEC 2023-W10


    MPEC number:

    Enter an MPEC number in one of the following forms:

    • 1997-B01 (the full form)
    • J97B01 (the packed version of the full form)
    • B01 (the abbreviated form)